PD1VW-10 Weather Reports


Display with metric or nautical units.
time (UTC)temp
F
wind
direction
speed
MPH
gust
MPH
rain 1hr
in
rain 24hr
in
rain mn
in
humidity
%
barometer
mb
20260505125022 56 28 13.0 16.0 0.00 0.00 0.00 69 1013.2
20260505124019 56 46 12.0 16.0 0.00 0.00 0.00 69 1013.1
20260505123016 56 40 14.0 17.0 0.00 0.00 0.00 69 1013.1
20260505122043 55 40 14.0 18.0 0.00 0.00 0.00 70 1013.3
20260505121040 55 78 7.0 11.0 0.00 0.00 0.00 71 1013.2
20260505120037 55 47 10.0 11.0 0.00 0.00 0.00 71 1013.2
20260505115035 55 36 12.0 16.0 0.00 0.00 0.00 72 1013.2
20260505114032 55 44 8.0 13.0 0.00 0.00 0.00 71 1013.6
20260505113029 55 48 10.0 14.0 0.00 0.00 0.00 71 1013.4
20260505112026 54 50 12.0 15.0 0.00 0.00 0.00 71 1013.6
20260505111023 54 25 10.0 11.0 0.00 0.00 0.00 72 1013.8
20260505102038 53 351 9.0 13.0 0.00 0.02 0.00 74 1014.0
20260505101036 53 42 7.0 10.0 0.00 0.07 0.00 74 1014.2
20260505100033 55 46 7.0 8.0 0.00 0.11 0.00 72 1014.2
20260505095050 54 45 11.0 13.0 0.00 0.11 0.00 74 1014.0
20260505094028 52 50 12.0 17.0 0.00 0.11 0.00 76 1014.0
20260505093025 53 11 10.0 13.0 0.00 0.11 0.00 75 1013.8
20260505092042 54 43 12.0 16.0 0.00 0.11 0.00 75 1013.9
20260505091039 53 68 11.0 17.0 0.00 0.11 0.00 75 1013.8
20260505090017 53 30 10.0 13.0 0.00 0.11 0.00 76 1013.8
20260505085044 53 34 8.0 13.0 0.00 0.11 0.00 77 1014.0
20260505084041 53 36 17.0 19.0 0.00 0.11 0.00 76 1014.1
20260505083038 53 36 15.0 18.0 0.00 0.11 0.00 77 1014.0
20260505082055 53 43 12.0 15.0 0.00 0.11 0.00 78 1014.2
20260505081033 52 355 10.0 13.0 0.00 0.11 0.00 78 1014.3
20260505080050 52 41 9.0 10.0 0.00 0.11 0.00 77 1014.0
20260505075027 52 43 10.0 11.0 0.00 0.11 0.00 79 1014.3
20260505074025 51 38 9.0 13.0 0.00 0.11 0.00 79 1014.4
20260505073022 51 20 7.0 9.0 0.00 0.11 0.00 80 1014.6
20260505072019 50 39 6.0 7.0 0.00 0.11 0.00 81 1014.6
20260505071017 51 54 5.0 8.0 0.00 0.11 0.00 80 1014.8
20260505070044 50 59 5.0 8.0 0.00 0.11 0.00 81 1014.7
20260505065041 50 49 6.0 8.0 0.00 0.11 0.00 82 1014.8
20260505064059 50 44 8.0 14.0 0.00 0.11 0.00 83 1014.6
20260505063036 49 40 8.0 10.0 0.00 0.11 0.00 83 1014.7
20260505062033 50 21 8.0 9.0 0.00 0.11 0.00 83 1014.7
20260505061051 50 36 8.0 10.0 0.00 0.11 0.00 84 1014.7
20260505060028 49 289 8.0 10.0 0.00 0.11 0.00 85 1014.5
20260505055145 49 267 6.0 7.0 0.00 0.11 0.00 88 1014.6
20260505054023 49 266 5.0 7.0 0.00 0.11 0.00 88 1014.6
20260505053020 49 266 5.0 7.0 0.00 0.11 0.00 88 1014.5
20260505052017 49 266 6.0 8.0 0.00 0.11 0.00 88 1014.4
20260505051044 49 266 4.0 6.0 0.00 0.11 0.00 88 1014.3
20260505041027 49 266 6.0 8.0 0.00 0.11 0.00 90 1014.4
20260505040045 49 266 3.0 4.0 0.00 0.11 0.00 90 1014.5
20260505035022 49 266 4.0 6.0 0.00 0.11 0.00 90 1014.1
20260505034019 49 266 3.0 4.0 0.00 0.11 0.00 90 1014.3
20260505033016 49 266 4.0 4.0 0.00 0.11 0.00 90 1014.4
20260505032044 49 266 4.0 6.0 0.00 0.11 0.00 91 1014.2
20260505031041 49 266 3.0 6.0 0.00 0.11 0.00 91 1014.3
20260505030038 49 266 4.0 6.0 0.00 0.11 0.00 91 1014.1
20260505025035 49 266 5.0 8.0 0.00 0.11 0.00 90 1014.4
20260505024032 50 266 4.0 4.0 0.00 0.11 0.00 90 1014.3
20260505023050 49 266 5.0 6.0 0.00 0.11 0.00 90 1014.5
20260505022027 50 266 5.0 7.0 0.00 0.11 0.00 90 1014.7
20260505021024 50 266 5.0 8.0 0.00 0.11 0.00 90 1014.5
20260505020021 50 266 4.0 6.0 0.00 0.11 0.00 91 1014.7
20260505015019 49 266 4.0 6.0 0.00 0.11 0.00 91 1014.5
20260505014016 49 266 6.0 8.0 0.00 0.11 0.00 90 1014.6
20260505013044 49 266 4.0 7.0 0.00 0.11 0.00 90 1014.8
20260505012041 49 266 6.0 7.0 0.00 0.11 0.00 91 1015.0
20260505011038 50 266 5.0 7.0 0.00 0.11 0.00 91 1015.0
20260505010035 50 266 5.0 7.0 0.00 0.11 0.00 90 1015.0
20260505005033 50 266 5.0 7.0 0.00 0.11 0.00 90 1015.0
20260505004030 50 266 6.0 8.0 0.00 0.11 0.00 90 1015.1
20260505003047 50 266 4.0 6.0 0.00 0.11 0.00 91 1015.2
20260505002024 50 266 5.0 7.0 0.00 0.11 0.00 91 1015.0
20260505001022 50 266 5.0 7.0 0.00 0.11 0.00 91 1015.1
20260505000019 50 266 4.0 6.0 0.00 0.11 0.00 90 1015.5
20260504235016 50 266 5.0 6.0 0.00 0.11 0.00 90 1015.7
20260504234044 50 266 4.0 6.0 0.00 0.11 0.00 90 1015.5
20260504233101 50 266 4.0 6.0 0.00 0.11 0.00 90 1015.6
20260504232038 50 266 5.0 6.0 0.00 0.11 0.00 90 1015.5
20260504231036 50 266 6.0 9.0 0.00 0.11 0.00 90 1015.7
20260504230033 50 266 7.0 8.0 0.00 0.11 0.00 90 1015.6
20260504225030 50 266 6.0 8.0 0.00 0.11 0.00 89 1015.7
20260504224028 50 266 7.0 9.0 0.00 0.11 0.00 89 1015.9
20260504223025 51 266 9.0 10.0 0.00 0.11 0.00 88 1015.8
20260504222042 51 266 6.0 8.0 0.00 0.11 0.00 88 1016.0
20260504221019 51 266 7.0 9.0 0.00 0.11 0.00 88 1015.9
20260504220017 51 266 5.0 7.0 0.00 0.11 0.11 88 1016.2
20260504215044 51 266 7.0 9.0 0.00 0.11 0.11 88 1016.2
20260504214042 51 266 7.0 11.0 0.00 0.11 0.11 88 1016.1
20260504213039 51 266 7.0 9.0 0.00 0.11 0.11 89 1016.0
20260504212036 51 266 6.0 7.0 0.00 0.11 0.11 89 1016.0
20260504211053 52 266 7.0 9.0 0.00 0.11 0.11 89 1016.2
20260504210031 52 266 7.0 9.0 0.00 0.11 0.11 90 1016.0
20260504205028 52 266 7.0 9.0 0.00 0.11 0.11 90 1015.9
20260504204045 52 266 7.0 9.0 0.00 0.11 0.11 91 1015.9
20260504203043 52 266 6.0 8.0 0.00 0.11 0.11 91 1016.0
20260504202020 52 266 9.0 9.0 0.00 0.11 0.11 91 1016.2
20260504201017 52 266 6.0 8.0 0.00 0.11 0.11 91 1015.9
20260504200045 52 266 8.0 11.0 0.00 0.11 0.11 91 1015.7
20260504195042 52 266 7.0 8.0 0.00 0.11 0.11 91 1015.6
20260504194039 52 267 8.0 13.0 0.00 0.11 0.11 92 1015.6
20260504193036 53 267 6.0 8.0 0.00 0.11 0.11 92 1015.6
20260504192034 53 267 8.0 10.0 0.00 0.11 0.11 92 1015.7
20260504191051 53 267 9.0 11.0 0.00 0.11 0.11 92 1015.4
20260504190049 53 267 11.0 13.0 0.00 0.11 0.11 92 1015.4
20260504185026 53 268 10.0 11.0 0.00 0.11 0.11 91 1015.2
20260504184043 53 271 8.0 10.0 0.00 0.11 0.11 91 1015.1
20260504183020 54 271 9.0 10.0 0.00 0.11 0.11 91 1015.4
20260504182018 54 273 9.0 13.0 0.00 0.11 0.11 91 1015.2
20260504181105 54 284 9.0 13.0 0.00 0.11 0.11 91 1015.1
20260504180042 54 289 8.0 9.0 0.00 0.11 0.11 91 1015.3
20260504175040 55 282 8.0 10.0 0.00 0.11 0.11 91 1015.2
20260504174037 55 322 10.0 14.0 0.00 0.11 0.11 90 1015.2
20260504173034 55 21 6.0 8.0 0.00 0.11 0.11 90 1015.3
20260504172031 55 37 10.0 13.0 0.00 0.11 0.11 90 1015.1
20260504171028 55 35 11.0 16.0 0.00 0.11 0.11 89 1015.1
20260504151045 57 40 11.0 14.0 0.00 0.11 0.11 90 1014.8
20260504141039 59 28 9.0 15.0 0.00 0.11 0.11 90 1015.1